Time,TemperatureF,DewpointF,PressureIn,WindDirection,WindDirectionDegrees,WindSpeedMPH,WindSpeedGustMPH,Humidity,HourlyPrecipIn,Conditions,Clouds,dailyrainin,SoftwareType,DateUTC
2013-02-22 00:00:00,20.5,14.7,30.06,East,90,9.2,9.2,78,0.00,CLR,,0.00,WeatherDisplay:10.37,2013-02-22 05:00:00,
2013-02-22 00:01:00,20.5,14.7,30.06,ESE,112,9.2,9.2,78,0.00,CLR,,0.00,WeatherDisplay:10.37,2013-02-22 05:01:00,
2013-02-22 00:02:00,20.5,14.7,30.06,ESE,112,9.2,9.2,78,0.00,CLR,,0.00,WeatherDisplay:10.37,2013-02-22 05:02:00,
2013-02-22 00:07:00,20.5,14.7,30.06,East,90,8.1,8.1,78,0.00,CLR,,0.00,WeatherDisplay:10.37,2013-02-22 05:07:00,
2013-02-22 00:12:00,20.5,14.7,30.06,SE,135,8.1,8.1,78,0.00,CLR,,0.00,WeatherDisplay:10.37,2013-02-22 05:12:00,
2013-02-22 00:17:00,20.7,14.9,30.07,ESE,112,11.5,11.5,78,0.00,CLR,,0.00,WeatherDisplay:10.37,2013-02-22 05:17:00,
2013-02-22 00:22:00,20.8,15.0,30.07,ENE,68,12.7,12.7,78,0.00,CLR,,0.00,WeatherDisplay:10.37,2013-02-22 05:22:00,
2013-02-22 00:27:00,20.8,14.7,30.06,ESE,112,9.9,9.9,77,0.00,CLR,,0.00,WeatherDisplay:10.37,2013-02-22 05:27:00,
2013-02-22 00:32:00,20.8,14.7,30.06,ESE,112,10.4,10.4,77,0.00,CLR,,0.00,WeatherDisplay:10.37,2013-02-22 05:32:00,
2013-02-22 00:37:00,21.0,14.9,30.06,ESE,112,15.0,15.0,77,0.00,CLR,,0.00,WeatherDisplay:10.37,2013-02-22 05:37:00,
2013-02-22 00:42:00,21.0,14.9,30.06,East,90,12.4,12.4,77,0.00,CLR,,0.00,WeatherDisplay:10.37,2013-02-22 05:42:00,
2013-02-22 00:47:00,21.2,15.1,30.06,ESE,112,13.8,13.8,77,0.00,CLR,,0.00,WeatherDisplay:10.37,2013-02-22 05:47:00,
2013-02-22 00:52:00,21.2,15.1,30.05,East,90,9.2,9.2,77,0.00,CLR,,0.00,WeatherDisplay:10.37,2013-02-22 05:52:00,
2013-02-22 00:57:00,21.2,15.1,30.05,East,90,11.5,11.5,77,0.00,CLR,,0.00,WeatherDisplay:10.37,2013-02-22 05:57:00,
2013-02-22 01:02:00,21.2,15.1,30.06,ESE,112,9.2,9.2,77,0.00,CLR,,0.00,WeatherDisplay:10.37,2013-02-22 06:02:00,
2013-02-22 01:07:00,21.2,15.1,30.06,East,90,6.8,6.8,77,0.00,CLR,,0.00,WeatherDisplay:10.37,2013-02-22 06:07:00,
2013-02-22 01:12:00,21.4,15.0,30.06,ESE,112,8.1,8.1,76,0.00,CLR,,0.00,WeatherDisplay:10.37,2013-02-22 06:12:00,
2013-02-22 01:17:00,21.6,15.2,30.07,East,90,6.3,6.3,76,0.00,CLR,,0.00,WeatherDisplay:10.37,2013-02-22 06:17:00,
2013-02-22 01:22:00,21.6,15.2,30.07,ESE,112,6.3,6.3,76,0.00,CLR,,0.00,WeatherDisplay:10.37,2013-02-22 06:22:00,
2013-02-22 01:27:00,21.6,15.2,30.07,ESE,112,6.9,6.9,76,0.00,CLR,,0.00,WeatherDisplay:10.37,2013-02-22 06:27:00,
2013-02-22 01:32:00,21.6,15.2,30.07,ESE,112,4.7,4.7,76,0.00,CLR,,0.00,WeatherDisplay:10.37,2013-02-22 06:32:00,
2013-02-22 01:37:00,21.7,15.0,30.07,ESE,112,5.8,5.8,75,0.00,CLR,,0.00,WeatherDisplay:10.37,2013-02-22 06:37:00,
2013-02-22 01:42:00,21.9,15.2,30.08,ESE,112,4.6,4.6,75,0.00,CLR,,0.00,WeatherDisplay:10.37,2013-02-22 06:42:00,
2013-02-22 01:47:00,21.9,15.2,30.08,East,90,5.8,5.8,75,0.00,CLR,,0.00,WeatherDisplay:10.37,2013-02-22 06:47:00,
2013-02-22 01:52:00,21.9,15.5,30.08,ESE,112,5.8,5.8,76,0.00,CLR,,0.00,WeatherDisplay:10.37,2013-02-22 06:52:00,
2013-02-22 01:57:00,21.9,15.5,30.08,ESE,112,4.7,4.7,76,0.00,CLR,,0.00,WeatherDisplay:10.37,2013-02-22 06:57:00,
2013-02-22 02:02:00,21.9,15.5,30.07,ESE,112,4.6,4.6,76,0.00,CLR,,0.00,WeatherDisplay:10.37,2013-02-22 07:02:00,
2013-02-22 02:07:00,21.7,15.3,30.07,ESE,112,2.3,2.3,76,0.00,CLR,,0.00,WeatherDisplay:10.37,2013-02-22 07:07:00,
2013-02-22 02:12:00,21.7,15.3,30.07,ESE,112,2.3,2.3,76,0.00,CLR,,0.00,WeatherDisplay:10.37,2013-02-22 07:12:00,
2013-02-22 02:17:00,21.6,15.2,30.08,ESE,112,4.6,4.6,76,0.00,CLR,,0.00,WeatherDisplay:10.37,2013-02-22 07:17:00,
2013-02-22 02:22:00,21.6,15.5,30.08,ESE,112,2.3,2.3,77,0.00,CLR,,0.00,WeatherDisplay:10.37,2013-02-22 07:22:00,
2013-02-22 02:27:00,21.6,15.5,30.09,ESE,112,3.5,3.5,77,0.00,CLR,,0.00,WeatherDisplay:10.37,2013-02-22 07:27:00,
2013-02-22 02:32:00,21.6,15.5,30.09,ESE,112,3.5,3.5,77,0.00,CLR,,0.00,WeatherDisplay:10.37,2013-02-22 07:32:00,
2013-02-22 02:37:00,21.7,15.6,30.09,ESE,112,3.5,3.5,77,0.00,CLR,,0.00,WeatherDisplay:10.37,2013-02-22 07:37:00,
2013-02-22 02:42:00,21.7,15.6,30.08,ESE,112,5.8,5.8,77,0.00,CLR,,0.00,WeatherDisplay:10.37,2013-02-22 07:42:00,
2013-02-22 02:47:00,21.7,15.6,30.08,ESE,112,8.3,8.3,77,0.00,CLR,,0.00,WeatherDisplay:10.37,2013-02-22 07:47:00,
2013-02-22 02:52:00,21.6,15.8,30.05,ESE,112,8.3,8.3,78,0.00,CLR,,0.00,WeatherDisplay:10.37,2013-02-22 07:52:00,
2013-02-22 02:57:00,21.6,15.8,30.05,ESE,112,5.8,5.8,78,0.00,CLR,,0.00,WeatherDisplay:10.37,2013-02-22 07:57:00,
2013-02-22 03:02:00,21.6,15.8,30.05,ESE,112,8.1,8.1,78,0.00,CLR,,0.00,WeatherDisplay:10.37,2013-02-22 08:02:00,
2013-02-22 03:07:00,21.6,15.8,30.05,ESE,112,6.9,6.9,78,0.00,CLR,,0.00,WeatherDisplay:10.37,2013-02-22 08:07:00,
2013-02-22 03:12:00,21.7,15.9,30.05,ESE,112,4.6,4.6,78,0.00,CLR,,0.00,WeatherDisplay:10.37,2013-02-22 08:12:00,
2013-02-22 03:17:00,21.9,15.8,30.06,ESE,112,6.9,6.9,77,0.00,CLR,,0.00,WeatherDisplay:10.37,2013-02-22 08:17:00,
2013-02-22 03:22:00,21.9,15.8,30.06,ESE,112,8.1,8.1,77,0.00,CLR,,0.00,WeatherDisplay:10.37,2013-02-22 08:22:00,
2013-02-22 03:27:00,22.1,16.0,30.04,ESE,112,6.3,6.3,77,0.00,CLR,,0.00,WeatherDisplay:10.37,2013-02-22 08:27:00,
2013-02-22 03:32:00,22.1,16.0,30.04,ESE,112,9.2,9.2,77,0.00,CLR,,0.00,WeatherDisplay:10.37,2013-02-22 08:32:00,
2013-02-22 03:37:00,22.3,16.2,30.04,ESE,112,8.8,8.8,77,0.00,CLR,,0.00,WeatherDisplay:10.37,2013-02-22 08:37:00,
2013-02-22 03:42:00,22.3,16.2,30.03,ESE,112,6.9,6.9,77,0.00,CLR,,0.00,WeatherDisplay:10.37,2013-02-22 08:42:00,
2013-02-22 03:47:00,22.3,16.2,30.03,ESE,112,7.3,7.3,77,0.00,CLR,,0.00,WeatherDisplay:10.37,2013-02-22 08:47:00,
2013-02-22 03:52:00,22.3,16.2,30.01,ESE,112,7.3,7.3,77,0.00,CLR,,0.00,WeatherDisplay:10.37,2013-02-22 08:52:00,
2013-02-22 03:57:00,22.5,16.4,30.01,ESE,112,11.5,11.5,77,0.00,CLR,,0.00,WeatherDisplay:10.37,2013-02-22 08:57:00,
2013-02-22 04:02:00,22.5,16.1,30.01,ESE,112,10.4,10.4,76,0.00,CLR,,0.00,WeatherDisplay:10.37,2013-02-22 09:02:00,
2013-02-22 04:07:00,22.8,16.4,30.01,ESE,112,8.1,8.1,76,0.00,CLR,,0.00,WeatherDisplay:10.37,2013-02-22 09:07:00,
2013-02-22 04:12:00,22.8,16.4,30.01,ESE,112,9.2,9.2,76,0.00,CLR,,0.00,WeatherDisplay:10.37,2013-02-22 09:12:00,
2013-02-22 04:17:00,22.8,16.4,30.01,ESE,112,9.4,9.4,76,0.00,CLR,,0.00,WeatherDisplay:10.37,2013-02-22 09:17:00,
2013-02-22 04:22:00,22.8,16.4,30.01,ESE,112,9.4,9.4,76,0.00,CLR,,0.00,WeatherDisplay:10.37,2013-02-22 09:22:00,
2013-02-22 04:27:00,23.0,16.6,29.99,East,90,10.4,10.4,76,0.00,CLR,,0.00,WeatherDisplay:10.37,2013-02-22 09:27:00,
2013-02-22 04:32:00,23.0,16.6,29.99,East,90,14.0,14.0,76,0.00,CLR,,0.00,WeatherDisplay:10.37,2013-02-22 09:32:00,
2013-02-22 04:37:00,23.2,16.4,29.99,ESE,112,11.5,11.5,75,0.00,CLR,,0.00,WeatherDisplay:10.37,2013-02-22 09:37:00,
2013-02-22 04:42:00,23.4,16.6,29.99,ESE,112,13.8,13.8,75,0.00,CLR,,0.00,WeatherDisplay:10.37,2013-02-22 09:42:00,
2013-02-22 04:47:00,23.4,16.6,29.99,ESE,112,8.1,8.2,75,0.00,CLR,,0.00,WeatherDisplay:10.37,2013-02-22 09:47:00,
2013-02-22 04:52:00,23.7,16.9,29.99,East,90,10.4,10.4,75,0.00,CLR,,0.00,WeatherDisplay:10.37,2013-02-22 09:52:00,
2013-02-22 04:57:00,23.7,16.9,29.99,ESE,112,10.4,10.4,75,0.00,CLR,,0.00,WeatherDisplay:10.37,2013-02-22 09:57:00,
2013-02-22 05:02:00,23.7,16.9,29.99,ESE,112,8.3,8.3,75,0.00,CLR,,0.00,WeatherDisplay:10.37,2013-02-22 10:02:00,
2013-02-22 05:07:00,24.1,17.0,29.99,ESE,112,10.4,10.4,74,0.00,CLR,,0.00,WeatherDisplay:10.37,2013-02-22 10:07:00,
2013-02-22 05:12:00,24.3,17.2,29.99,ESE,112,10.4,10.4,74,0.00,CLR,,0.00,WeatherDisplay:10.37,2013-02-22 10:12:00,
2013-02-22 05:17:00,24.4,17.0,30.00,East,90,10.4,10.4,73,0.00,CLR,,0.00,WeatherDisplay:10.37,2013-02-22 10:17:00,
2013-02-22 05:22:00,24.8,17.4,30.00,East,90,11.5,11.5,73,0.00,CLR,,0.00,WeatherDisplay:10.37,2013-02-22 10:22:00,
2013-02-22 05:27:00,25.0,17.6,30.00,ESE,112,11.5,11.5,73,0.00,CLR,,0.00,WeatherDisplay:10.37,2013-02-22 10:27:00,
2013-02-22 05:32:00,25.0,17.6,30.00,East,90,10.4,10.4,73,0.00,CLR,,0.00,WeatherDisplay:10.37,2013-02-22 10:32:00,
2013-02-22 05:37:00,25.2,17.8,30.00,ESE,112,10.4,10.4,73,0.00,CLR,,0.00,WeatherDisplay:10.37,2013-02-22 10:37:00,
2013-02-22 05:42:00,25.2,17.8,30.00,ESE,112,11.5,11.5,73,0.00,CLR,,0.00,WeatherDisplay:10.37,2013-02-22 10:42:00,
2013-02-22 05:47:00,25.3,17.5,30.00,East,90,10.4,10.4,72,0.00,CLR,,0.00,WeatherDisplay:10.37,2013-02-22 10:47:00,
2013-02-22 05:52:00,25.5,17.7,29.98,ESE,112,12.7,12.7,72,0.00,CLR,,0.00,WeatherDisplay:10.37,2013-02-22 10:52:00,
2013-02-22 05:57:00,25.7,17.6,29.98,ESE,112,15.0,15.0,71,0.00,CLR,,0.00,WeatherDisplay:10.37,2013-02-22 10:57:00,
2013-02-22 06:02:00,25.7,17.6,29.98,ESE,112,11.5,11.5,71,0.00,CLR,,0.00,WeatherDisplay:10.37,2013-02-22 11:02:00,
2013-02-22 06:07:00,25.9,17.8,29.98,East,90,12.7,12.7,71,0.00,CLR,,0.00,WeatherDisplay:10.37,2013-02-22 11:07:00,
2013-02-22 06:12:00,26.1,18.0,29.98,ESE,112,13.5,13.5,71,0.00,CLR,,0.00,WeatherDisplay:10.37,2013-02-22 11:12:00,
2013-02-22 06:17:00,26.2,18.1,29.97,ESE,112,13.5,13.5,71,0.00,CLR,,0.00,WeatherDisplay:10.37,2013-02-22 11:17:00,
2013-02-22 06:22:00,26.4,17.9,29.97,SE,135,12.7,12.7,70,0.00,CLR,,0.00,WeatherDisplay:10.37,2013-02-22 11:22:00,
2013-02-22 06:27:00,26.6,18.1,29.95,ESE,112,16.1,16.1,70,0.00,CLR,,0.00,WeatherDisplay:10.37,2013-02-22 11:27:00,
2013-02-22 06:32:00,26.6,18.1,29.95,East,90,16.1,16.1,70,0.00,OVC,,0.00,WeatherDisplay:10.37,2013-02-22 11:32:00,
2013-02-22 06:37:00,27.5,18.3,29.95,SE,135,11.9,11.9,68,0.00,OVC,,0.00,WeatherDisplay:10.37,2013-02-22 11:37:00,
2013-02-22 06:42:00,27.5,18.0,29.95,ESE,112,12.7,12.7,67,0.00,OVC,,0.00,WeatherDisplay:10.37,2013-02-22 11:42:00,
2013-02-22 06:47:00,27.9,18.0,29.95,ESE,112,10.4,10.4,66,0.00,OVC,,0.00,WeatherDisplay:10.37,2013-02-22 11:47:00,
2013-02-22 06:52:00,28.2,18.3,29.94,ESE,112,9.4,9.4,66,0.00,OVC,,0.00,WeatherDisplay:10.37,2013-02-22 11:52:00,
2013-02-22 06:57:00,28.4,18.5,29.94,ESE,112,9.2,9.2,66,0.00,OVC,,0.00,WeatherDisplay:10.37,2013-02-22 11:57:00,
2013-02-22 07:02:00,28.8,18.5,29.94,ESE,112,10.4,10.4,65,0.00,OVC,,0.00,WeatherDisplay:10.37,2013-02-22 12:02:00,
2013-02-22 07:07:00,28.9,18.2,29.94,ESE,112,10.4,10.5,64,0.00,OVC,,0.00,WeatherDisplay:10.37,2013-02-22 12:07:00,
2013-02-22 07:12:00,28.9,18.2,29.94,ESE,112,10.4,10.4,64,0.00,OVC,,0.00,WeatherDisplay:10.37,2013-02-22 12:12:00,
2013-02-22 07:17:00,29.8,18.0,29.93,ESE,112,9.4,9.4,61,0.00,OVC,,0.00,WeatherDisplay:10.37,2013-02-22 12:17:00,
2013-02-22 07:22:00,30.2,18.0,29.93,ESE,112,13.8,13.8,60,0.00,OVC,,0.00,WeatherDisplay:10.37,2013-02-22 12:22:00,
2013-02-22 07:27:00,30.4,17.8,29.92,ESE,112,13.0,13.0,59,0.00,OVC,,0.00,WeatherDisplay:10.37,2013-02-22 12:27:00,
2013-02-22 07:32:00,30.7,17.7,29.92,SE,135,11.5,11.5,58,0.00,OVC,,0.00,WeatherDisplay:10.37,2013-02-22 12:32:00,
2013-02-22 07:37:00,30.9,17.8,29.92,ESE,112,15.0,15.0,58,0.00,OVC,,0.00,WeatherDisplay:10.37,2013-02-22 12:37:00,
2013-02-22 07:42:00,31.1,18.0,29.91,SE,135,10.4,10.4,58,0.00,OVC,,0.00,WeatherDisplay:10.37,2013-02-22 12:42:00,
2013-02-22 07:47:00,31.3,17.8,29.91,SE,135,11.5,11.5,57,0.00,OVC,,0.00,WeatherDisplay:10.37,2013-02-22 12:47:00,
2013-02-22 07:52:00,31.5,18.0,29.91,South,180,10.4,10.4,57,0.00,OVC,,0.00,WeatherDisplay:10.37,2013-02-22 12:52:00,
2013-02-22 07:57:00,31.6,18.1,29.91,SSE,158,13.0,13.0,57,0.00,OVC,,0.00,WeatherDisplay:10.37,2013-02-22 12:57:00,
2013-02-22 08:02:00,32.0,18.5,29.90,SE,135,12.7,12.7,57,0.00,OVC,,0.00,WeatherDisplay:10.37,2013-02-22 13:02:00,
2013-02-22 08:07:00,32.0,18.5,29.90,SE,135,12.7,12.7,57,0.00,OVC,,0.00,WeatherDisplay:10.37,2013-02-22 13:07:00,
2013-02-22 08:12:00,32.2,18.7,29.90,East,90,10.4,10.4,57,0.00,OVC,,0.00,WeatherDisplay:10.37,2013-02-22 13:12:00,
2013-02-22 08:17:00,32.4,18.8,29.91,ESE,112,9.2,9.2,57,0.00,OVC,,0.00,WeatherDisplay:10.37,2013-02-22 13:17:00,
2013-02-22 08:22:00,32.5,19.3,29.91,SSE,158,10.4,10.4,58,0.00,OVC,,0.00,WeatherDisplay:10.37,2013-02-22 13:22:00,
2013-02-22 08:27:00,32.7,19.9,29.91,ESE,112,12.4,12.4,59,0.00,OVC,,0.00,WeatherDisplay:10.37,2013-02-22 13:27:00,
2013-02-22 08:32:00,32.9,20.1,29.91,SSE,158,13.8,13.8,59,0.00,OVC,,0.00,WeatherDisplay:10.37,2013-02-22 13:32:00,
2013-02-22 08:37:00,32.9,20.1,29.91,SE,135,12.7,12.7,59,0.00,OVC,,0.00,WeatherDisplay:10.37,2013-02-22 13:37:00,
2013-02-22 08:42:00,33.1,20.3,29.91,ESE,112,16.1,16.1,59,0.00,OVC,,0.00,WeatherDisplay:10.37,2013-02-22 13:42:00,
2013-02-22 08:47:00,33.1,20.3,29.91,SE,135,8.3,8.3,59,0.00,OVC,,0.00,WeatherDisplay:10.37,2013-02-22 13:47:00,
2013-02-22 08:52:00,33.3,20.5,29.91,ESE,112,12.7,12.7,59,0.00,OVC,,0.00,WeatherDisplay:10.37,2013-02-22 13:52:00,
2013-02-22 08:57:00,33.3,20.5,29.91,ESE,112,11.5,11.5,59,0.00,OVC,,0.00,WeatherDisplay:10.37,2013-02-22 13:57:00,
2013-02-22 09:02:00,33.3,20.9,29.90,ESE,112,13.8,13.8,60,0.00,OVC,,0.00,WeatherDisplay:10.37,2013-02-22 14:02:00,
2013-02-22 09:07:00,33.3,21.7,29.90,SSE,158,10.4,10.4,62,0.00,OVC,,0.00,WeatherDisplay:10.37,2013-02-22 14:07:00,
2013-02-22 09:12:00,33.3,22.1,29.90,ESE,112,14.0,14.0,63,0.00,OVC,,0.00,WeatherDisplay:10.37,2013-02-22 14:12:00,
2013-02-22 09:17:00,33.3,22.1,29.89,SE,135,9.2,9.2,63,0.00,OVC,,0.00,WeatherDisplay:10.37,2013-02-22 14:17:00,
2013-02-22 09:22:00,33.3,22.4,29.89,SSE,158,11.5,11.5,64,0.00,OVC,,0.00,WeatherDisplay:10.37,2013-02-22 14:22:00,
2013-02-22 09:27:00,33.3,22.4,29.89,SE,135,11.5,11.5,64,0.00,OVC,,0.00,WeatherDisplay:10.37,2013-02-22 14:27:00,
2013-02-22 09:32:00,33.1,21.9,29.89,South,180,13.8,13.8,63,0.00,OVC,,0.00,WeatherDisplay:10.37,2013-02-22 14:32:00,
2013-02-22 09:37:00,32.9,22.0,29.89,ENE,68,12.7,12.7,64,0.00,OVC,,0.00,WeatherDisplay:10.37,2013-02-22 14:37:00,
2013-02-22 09:42:00,32.9,22.4,29.89,South,180,11.5,11.5,65,0.00,OVC,,0.00,WeatherDisplay:10.37,2013-02-22 14:42:00,
2013-02-22 09:47:00,32.7,22.2,29.89,SSW,202,12.7,12.7,65,0.00,OVC,,0.00,WeatherDisplay:10.37,2013-02-22 14:47:00,
2013-02-22 09:52:00,32.7,22.2,29.89,SSE,158,12.7,12.7,65,0.00,OVC,,0.00,WeatherDisplay:10.37,2013-02-22 14:52:00,
2013-02-22 09:57:00,32.2,23.2,29.89,SE,135,15.5,15.5,69,0.00,OVC,,0.00,WeatherDisplay:10.37,2013-02-22 14:57:00,
2013-02-22 10:02:00,31.8,24.1,29.89,SE,135,8.1,8.1,73,0.00,OVC,,0.00,WeatherDisplay:10.37,2013-02-22 15:02:00,
2013-02-22 10:07:00,31.3,24.9,29.89,ESE,112,14.0,14.0,77,0.00,OVC,,0.00,WeatherDisplay:10.37,2013-02-22 15:07:00,
2013-02-22 10:12:00,31.1,25.7,29.89,SE,135,13.8,13.8,80,0.00,OVC,,0.00,WeatherDisplay:10.37,2013-02-22 15:12:00,
2013-02-22 10:17:00,31.1,25.7,29.89,ESE,112,9.2,9.2,80,0.00,OVC,,0.00,WeatherDisplay:10.37,2013-02-22 15:17:00,
2013-02-22 10:22:00,31.1,26.0,29.89,West,270,11.5,11.5,81,0.00,OVC,,0.00,WeatherDisplay:10.37,2013-02-22 15:22:00,
2013-02-22 10:27:00,31.1,26.2,29.89,SE,135,8.1,8.1,82,0.00,OVC,,0.00,WeatherDisplay:10.37,2013-02-22 15:27:00,
2013-02-22 10:32:00,30.9,26.1,29.89,ESE,112,13.8,13.8,82,0.00,OVC,,0.00,WeatherDisplay:10.37,2013-02-22 15:32:00,
2013-02-22 10:37:00,30.9,26.3,29.89,SE,135,9.2,9.2,83,0.00,OVC,,0.00,WeatherDisplay:10.37,2013-02-22 15:37:00,
2013-02-22 10:42:00,30.9,26.6,29.89,SE,135,10.4,10.4,84,0.00,OVC,,0.00,WeatherDisplay:10.37,2013-02-22 15:42:00,
2013-02-22 10:47:00,30.9,26.9,29.89,SE,135,10.4,10.4,85,0.00,OVC,,0.00,WeatherDisplay:10.37,2013-02-22 15:47:00,
2013-02-22 10:52:00,30.9,27.2,29.89,ESE,112,9.4,9.4,86,0.00,OVC,,0.00,WeatherDisplay:10.37,2013-02-22 15:52:00,
2013-02-22 10:57:00,30.9,27.5,29.89,ESE,112,9.2,9.2,87,0.00,OVC,,0.00,WeatherDisplay:10.37,2013-02-22 15:57:00,
2013-02-22 11:02:00,30.9,27.8,29.89,SSE,158,10.4,10.4,88,0.00,OVC,,0.00,WeatherDisplay:10.37,2013-02-22 16:02:00,
2013-02-22 11:07:00,30.7,28.1,29.89,SE,135,8.1,8.1,90,0.00,OVC,,0.00,WeatherDisplay:10.37,2013-02-22 16:07:00,
2013-02-22 11:12:00,30.7,28.1,29.89,ESE,112,10.4,10.4,90,0.00,OVC,,0.00,WeatherDisplay:10.37,2013-02-22 16:12:00,
2013-02-22 11:17:00,30.7,28.1,29.89,SE,135,6.9,6.9,90,0.00,OVC,,0.00,WeatherDisplay:10.37,2013-02-22 16:17:00,
2013-02-22 11:22:00,30.7,28.1,29.89,SE,135,5.8,5.8,90,0.00,OVC,,0.00,WeatherDisplay:10.37,2013-02-22 16:22:00,
2013-02-22 11:27:00,30.7,28.7,29.89,ESE,112,10.4,10.4,92,0.00,OVC,,0.00,WeatherDisplay:10.37,2013-02-22 16:27:00,
2013-02-22 11:32:00,30.7,28.9,29.89,ESE,112,9.2,9.2,93,0.00,-RA,,0.00,WeatherDisplay:10.37,2013-02-22 16:32:00,
2013-02-22 11:37:00,30.7,29.2,29.89,ESE,112,6.9,6.9,94,0.00,-RA,,0.00,WeatherDisplay:10.37,2013-02-22 16:37:00,
2013-02-22 11:42:00,30.7,29.4,29.88,East,90,6.9,7.0,95,0.00,-RA,,0.00,WeatherDisplay:10.37,2013-02-22 16:42:00,
2013-02-22 11:47:00,30.6,29.6,29.88,SSE,158,8.3,8.3,96,0.00,-RA,,0.00,WeatherDisplay:10.37,2013-02-22 16:47:00,
2013-02-22 11:52:00,30.6,29.6,29.88,SE,135,8.1,8.1,96,0.00,-RA,,0.00,WeatherDisplay:10.37,2013-02-22 16:52:00,
2013-02-22 11:57:00,30.6,29.9,29.88,ESE,112,9.2,9.2,97,0.00,-RA,,0.00,WeatherDisplay:10.37,2013-02-22 16:57:00,
2013-02-22 12:02:00,30.6,30.1,29.88,SE,135,8.8,8.8,98,0.00,OVC,,0.00,WeatherDisplay:10.37,2013-02-22 17:02:00,
2013-02-22 12:07:00,30.6,30.1,29.88,ESE,112,8.1,8.4,98,0.00,OVC,,0.00,WeatherDisplay:10.37,2013-02-22 17:07:00,
2013-02-22 12:12:00,30.6,30.4,29.88,East,90,9.2,9.2,99,0.00,OVC,,0.00,WeatherDisplay:10.37,2013-02-22 17:12:00,
2013-02-22 12:17:00,30.7,30.5,29.88,ESE,112,8.3,8.3,99,0.00,OVC,,0.00,WeatherDisplay:10.37,2013-02-22 17:17:00,
2013-02-22 12:22:00,30.9,30.7,29.88,SSE,158,8.8,8.8,99,0.00,OVC,,0.00,WeatherDisplay:10.37,2013-02-22 17:22:00,
2013-02-22 12:27:00,30.9,30.7,29.87,SE,135,7.8,7.8,99,0.00,OVC,,0.00,WeatherDisplay:10.37,2013-02-22 17:27:00,
2013-02-22 12:32:00,31.1,30.9,29.87,ESE,112,7.8,7.8,99,0.00,OVC,,0.00,WeatherDisplay:10.37,2013-02-22 17:32:00,
2013-02-22 12:37:00,31.1,30.9,29.87,ESE,112,5.8,5.8,99,0.00,OVC,,0.00,WeatherDisplay:10.37,2013-02-22 17:37:00,
2013-02-22 12:42:00,31.3,31.1,29.87,SE,135,7.3,7.3,99,0.00,OVC,,0.00,WeatherDisplay:10.37,2013-02-22 17:42:00,
2013-02-22 12:47:00,31.5,31.3,29.87,SE,135,7.3,7.3,99,0.00,OVC,,0.00,WeatherDisplay:10.37,2013-02-22 17:47:00,
2013-02-22 12:52:00,31.6,31.4,29.86,SE,135,6.9,6.9,99,0.00,OVC,,0.00,WeatherDisplay:10.37,2013-02-22 17:52:00,
2013-02-22 12:57:00,31.6,31.4,29.86,ESE,112,5.8,5.8,99,0.00,OVC,,0.00,WeatherDisplay:10.37,2013-02-22 17:57:00,
2013-02-22 13:02:00,31.8,31.6,29.86,ESE,112,8.1,8.1,99,0.00,OVC,,0.00,WeatherDisplay:10.37,2013-02-22 18:02:00,
2013-02-22 13:07:00,32.0,31.8,29.86,SE,135,9.2,9.2,99,0.00,OVC,,0.00,WeatherDisplay:10.37,2013-02-22 18:07:00,
2013-02-22 13:12:00,32.2,32.0,29.86,ESE,112,5.8,5.8,99,0.00,OVC,,0.00,WeatherDisplay:10.37,2013-02-22 18:12:00,
2013-02-22 13:17:00,32.2,32.0,29.86,SSE,158,7.3,7.3,99,0.00,OVC,,0.00,WeatherDisplay:10.37,2013-02-22 18:17:00,
2013-02-22 13:22:00,32.4,31.9,29.86,SSE,158,6.9,7.6,98,0.00,OVC,,0.00,WeatherDisplay:10.37,2013-02-22 18:22:00,
2013-02-22 13:27:00,32.5,32.0,29.85,ESE,112,7.8,7.8,98,0.00,OVC,,0.00,WeatherDisplay:10.37,2013-02-22 18:27:00,
2013-02-22 13:32:00,32.9,32.1,29.85,SE,135,6.9,6.9,97,0.00,OVC,,0.00,WeatherDisplay:10.37,2013-02-22 18:32:00,
2013-02-22 13:37:00,33.1,32.1,29.85,ESE,112,8.1,8.1,96,0.00,OVC,,0.00,WeatherDisplay:10.37,2013-02-22 18:37:00,
2013-02-22 13:42:00,33.3,32.3,29.85,ESE,112,8.1,8.1,96,0.00,OVC,,0.00,WeatherDisplay:10.37,2013-02-22 18:42:00,
2013-02-22 13:47:00,33.3,32.3,29.85,ESE,112,6.9,6.9,96,0.00,OVC,,0.00,WeatherDisplay:10.37,2013-02-22 18:47:00,
2013-02-22 13:52:00,33.4,32.4,29.84,ESE,112,5.8,5.8,96,0.00,OVC,,0.00,WeatherDisplay:10.37,2013-02-22 18:52:00,
2013-02-22 13:57:00,33.4,32.1,29.84,ESE,112,9.2,9.2,95,0.00,OVC,,0.00,WeatherDisplay:10.37,2013-02-22 18:57:00,
2013-02-22 14:02:00,33.6,32.3,29.85,ESE,112,6.3,6.3,95,0.01,RA,,0.01,WeatherDisplay:10.37,2013-02-22 19:02:00,
2013-02-22 14:07:00,33.8,32.5,29.85,ESE,112,6.9,6.9,95,0.01,RA,,0.01,WeatherDisplay:10.37,2013-02-22 19:07:00,
2013-02-22 14:12:00,34.2,32.9,29.85,SE,135,5.8,5.8,95,0.01,OVC,,0.01,WeatherDisplay:10.37,2013-02-22 19:12:00,
2013-02-22 14:17:00,34.3,32.8,29.84,SE,135,9.2,9.2,94,0.01,OVC,,0.01,WeatherDisplay:10.37,2013-02-22 19:17:00,
2013-02-22 14:22:00,34.7,32.9,29.84,SE,135,8.3,8.3,93,0.01,OVC,,0.01,WeatherDisplay:10.37,2013-02-22 19:22:00,
2013-02-22 14:27:00,34.9,33.1,29.83,SE,135,9.2,9.2,93,0.01,OVC,,0.01,WeatherDisplay:10.37,2013-02-22 19:27:00,
2013-02-22 14:32:00,35.1,33.3,29.83,ESE,112,10.4,10.4,93,0.01,OVC,,0.01,WeatherDisplay:10.37,2013-02-22 19:32:00,
2013-02-22 14:37:00,35.1,33.3,29.84,ESE,112,8.8,8.8,93,0.01,OVC,,0.01,WeatherDisplay:10.37,2013-02-22 19:37:00,
2013-02-22 14:42:00,35.1,33.0,29.84,SE,135,8.1,8.1,92,0.01,OVC,,0.01,WeatherDisplay:10.37,2013-02-22 19:42:00,
2013-02-22 14:47:00,35.4,33.3,29.84,ESE,112,6.9,6.9,92,0.01,OVC,,0.01,WeatherDisplay:10.37,2013-02-22 19:47:00,
2013-02-22 14:52:00,35.4,33.3,29.84,SE,135,7.8,7.8,92,0.01,OVC,,0.01,WeatherDisplay:10.37,2013-02-22 19:52:00,
2013-02-22 14:57:00,35.6,33.5,29.84,SE,135,6.9,6.9,92,0.01,OVC,,0.01,WeatherDisplay:10.37,2013-02-22 19:57:00,
2013-02-22 15:02:00,36.1,33.7,29.83,ESE,112,5.8,6.5,91,0.00,OVC,,0.01,WeatherDisplay:10.37,2013-02-22 20:02:00,
2013-02-22 15:07:00,36.3,33.9,29.83,SE,135,6.9,6.9,91,0.00,OVC,,0.01,WeatherDisplay:10.37,2013-02-22 20:07:00,
2013-02-22 15:12:00,36.5,34.1,29.83,SE,135,4.6,4.6,91,0.00,OVC,,0.01,WeatherDisplay:10.37,2013-02-22 20:12:00,
2013-02-22 15:17:00,36.7,34.0,29.83,SE,135,5.8,5.8,90,0.00,OVC,,0.01,WeatherDisplay:10.37,2013-02-22 20:17:00,
2013-02-22 15:23:00,36.9,34.2,29.83,ESE,112,6.8,6.8,90,0.00,OVC,,0.01,WeatherDisplay:10.37,2013-02-22 20:23:00,
2013-02-22 15:28:00,37.2,34.3,29.83,SSE,158,7.8,7.8,89,0.00,OVC,,0.01,WeatherDisplay:10.37,2013-02-22 20:28:00,
2013-02-22 15:33:00,37.4,34.5,29.83,ESE,112,9.2,9.2,89,0.00,OVC,,0.01,WeatherDisplay:10.37,2013-02-22 20:33:00,
2013-02-22 15:38:00,37.4,34.5,29.83,ESE,112,4.6,4.6,89,0.00,OVC,,0.01,WeatherDisplay:10.37,2013-02-22 20:38:00,
2013-02-22 15:43:00,37.6,34.7,29.83,SE,135,5.8,5.8,89,0.00,OVC,,0.01,WeatherDisplay:10.37,2013-02-22 20:43:00,
2013-02-22 15:48:00,37.6,34.7,29.83,SSE,158,5.8,5.8,89,0.00,OVC,,0.01,WeatherDisplay:10.37,2013-02-22 20:48:00,
2013-02-22 15:53:00,37.6,34.7,29.83,ESE,112,5.8,5.8,89,0.00,OVC,,0.01,WeatherDisplay:10.37,2013-02-22 20:53:00,
2013-02-22 15:58:00,37.6,34.7,29.83,ESE,112,6.8,6.8,89,0.00,OVC,,0.01,WeatherDisplay:10.37,2013-02-22 20:58:00,
2013-02-22 16:03:00,37.6,34.4,29.82,ESE,112,7.8,7.8,88,0.00,OVC,,0.01,WeatherDisplay:10.37,2013-02-22 21:03:00,
2013-02-22 16:08:00,37.6,34.1,29.82,SSE,158,9.2,9.2,87,0.00,OVC,,0.01,WeatherDisplay:10.37,2013-02-22 21:08:00,
2013-02-22 16:13:00,37.6,34.1,29.82,SSE,158,8.1,8.1,87,0.00,OVC,,0.01,WeatherDisplay:10.37,2013-02-22 21:13:00,
2013-02-22 16:18:00,37.6,34.1,29.82,ESE,112,5.8,6.1,87,0.00,OVC,,0.01,WeatherDisplay:10.37,2013-02-22 21:18:00,
2013-02-22 16:23:00,37.8,34.3,29.82,ESE,112,5.8,5.8,87,0.00,OVC,,0.01,WeatherDisplay:10.37,2013-02-22 21:23:00,
2013-02-22 16:28:00,37.8,34.3,29.82,SE,135,7.8,7.8,87,0.00,OVC,,0.01,WeatherDisplay:10.37,2013-02-22 21:28:00,
2013-02-22 16:33:00,37.9,34.4,29.82,ESE,112,6.3,6.3,87,0.00,OVC,,0.01,WeatherDisplay:10.37,2013-02-22 21:33:00,
2013-02-22 16:38:00,37.9,34.4,29.81,SE,135,6.9,6.9,87,0.00,OVC,,0.01,WeatherDisplay:10.37,2013-02-22 21:38:00,
2013-02-22 16:43:00,37.9,34.4,29.81,ESE,112,5.8,5.8,87,0.00,OVC,,0.01,WeatherDisplay:10.37,2013-02-22 21:43:00,
2013-02-22 16:48:00,37.9,34.4,29.81,ESE,112,7.3,7.3,87,0.00,OVC,,0.01,WeatherDisplay:10.37,2013-02-22 21:48:00,
2013-02-22 16:53:00,37.9,34.4,29.81,ESE,112,5.8,5.8,87,0.00,OVC,,0.01,WeatherDisplay:10.37,2013-02-22 21:53:00,
2013-02-22 16:58:00,37.9,34.4,29.81,SSE,158,5.8,5.8,87,0.00,OVC,,0.01,WeatherDisplay:10.37,2013-02-22 21:58:00,
2013-02-22 17:03:00,37.9,34.4,29.81,ESE,112,5.8,5.8,87,0.00,OVC,,0.01,WeatherDisplay:10.37,2013-02-22 22:03:00,
2013-02-22 17:08:00,37.9,34.4,29.81,SE,135,5.8,5.8,87,0.00,OVC,,0.01,WeatherDisplay:10.37,2013-02-22 22:08:00,
2013-02-22 17:13:00,37.9,34.1,29.81,ESE,112,6.9,6.9,86,0.00,OVC,,0.01,WeatherDisplay:10.37,2013-02-22 22:13:00,
2013-02-22 17:18:00,38.1,34.3,29.81,SE,135,5.8,5.8,86,0.00,OVC,,0.01,WeatherDisplay:10.37,2013-02-22 22:18:00,
2013-02-22 17:23:00,38.1,34.3,29.81,ESE,112,6.9,6.9,86,0.00,OVC,,0.01,WeatherDisplay:10.37,2013-02-22 22:23:00,
2013-02-22 17:28:00,38.1,34.3,29.82,SSE,158,6.9,6.9,86,0.00,OVC,,0.01,WeatherDisplay:10.37,2013-02-22 22:28:00,
2013-02-22 17:33:00,38.1,34.3,29.82,SE,135,6.3,6.3,86,0.00,OVC,,0.01,WeatherDisplay:10.37,2013-02-22 22:33:00,
2013-02-22 17:38:00,38.1,34.3,29.82,ESE,112,6.9,6.9,86,0.00,OVC,,0.01,WeatherDisplay:10.37,2013-02-22 22:38:00,
2013-02-22 17:43:00,37.9,34.1,29.82,ESE,112,5.3,5.3,86,0.00,OVC,,0.01,WeatherDisplay:10.37,2013-02-22 22:43:00,
2013-02-22 17:48:00,37.9,34.1,29.82,SSE,158,4.6,4.6,86,0.00,OVC,,0.01,WeatherDisplay:10.37,2013-02-22 22:48:00,
2013-02-22 17:53:00,37.8,34.0,29.81,ESE,112,4.6,4.6,86,0.00,OVC,,0.01,WeatherDisplay:10.37,2013-02-22 22:53:00,
2013-02-22 17:58:00,37.8,34.0,29.81,SE,135,4.6,4.6,86,0.00,OVC,,0.01,WeatherDisplay:10.37,2013-02-22 22:58:00,
2013-02-22 18:03:00,37.8,34.0,29.81,ESE,112,6.9,6.9,86,0.00,OVC,,0.01,WeatherDisplay:10.37,2013-02-22 23:03:00,
2013-02-22 18:08:00,37.8,34.0,29.81,ESE,112,5.8,5.8,86,0.00,OVC,,0.01,WeatherDisplay:10.37,2013-02-22 23:08:00,
2013-02-22 18:13:00,37.8,34.0,29.81,ESE,112,5.8,5.8,86,0.00,OVC,,0.01,WeatherDisplay:10.37,2013-02-22 23:13:00,
2013-02-22 18:18:00,37.8,33.7,29.82,SE,135,5.8,5.8,85,0.00,OVC,,0.01,WeatherDisplay:10.37,2013-02-22 23:18:00,
2013-02-22 18:23:00,37.8,33.7,29.82,SE,135,5.8,5.8,85,0.00,OVC,,0.01,WeatherDisplay:10.37,2013-02-22 23:23:00,
2013-02-22 18:28:00,37.8,33.7,29.82,SE,135,6.9,6.9,85,0.00,OVC,,0.01,WeatherDisplay:10.37,2013-02-22 23:28:00,
2013-02-22 18:33:00,37.8,33.7,29.82,ESE,112,5.8,5.8,85,0.00,OVC,,0.01,WeatherDisplay:10.37,2013-02-22 23:33:00,
2013-02-22 18:38:00,37.8,33.7,29.82,ESE,112,4.6,4.6,85,0.00,OVC,,0.01,WeatherDisplay:10.37,2013-02-22 23:38:00,
2013-02-22 18:43:00,37.8,33.7,29.82,ESE,112,5.8,5.8,85,0.00,OVC,,0.01,WeatherDisplay:10.37,2013-02-22 23:43:00,
2013-02-22 18:48:00,37.8,33.7,29.82,ESE,112,5.8,5.8,85,0.00,OVC,,0.01,WeatherDisplay:10.37,2013-02-22 23:48:00,
2013-02-22 18:53:00,37.6,33.5,29.82,SE,135,5.8,5.8,85,0.00,OVC,,0.01,WeatherDisplay:10.37,2013-02-22 23:53:00,
2013-02-22 18:58:00,37.6,33.5,29.82,ESE,112,5.8,5.8,85,0.00,OVC,,0.01,WeatherDisplay:10.37,2013-02-22 23:58:00,
2013-02-22 19:03:00,37.6,33.5,29.81,ESE,112,5.8,5.8,85,0.00,OVC,,0.01,WeatherDisplay:10.37,2013-02-23 00:03:00,
2013-02-22 19:09:00,37.6,33.5,29.81,SSE,158,5.8,5.8,85,0.00,OVC,,0.01,WeatherDisplay:10.37,2013-02-23 00:09:00,
2013-02-22 19:14:00,37.6,33.5,29.82,ESE,112,4.6,4.6,85,0.00,OVC,,0.01,WeatherDisplay:10.37,2013-02-23 00:14:00,
2013-02-22 19:19:00,37.6,33.5,29.82,ESE,112,4.7,4.7,85,0.00,OVC,,0.01,WeatherDisplay:10.37,2013-02-23 00:19:00,
2013-02-22 19:24:00,37.6,33.5,29.82,East,90,4.6,4.6,85,0.00,OVC,,0.01,WeatherDisplay:10.37,2013-02-23 00:24:00,
2013-02-22 19:29:00,37.6,33.5,29.82,East,90,3.5,3.6,85,0.00,OVC,,0.01,WeatherDisplay:10.37,2013-02-23 00:29:00,
2013-02-22 19:34:00,37.6,33.8,29.82,ESE,112,5.8,5.8,86,0.00,OVC,,0.01,WeatherDisplay:10.37,2013-02-23 00:34:00,
2013-02-22 19:39:00,37.2,33.4,29.82,East,90,4.6,4.6,86,0.00,OVC,,0.01,WeatherDisplay:10.37,2013-02-23 00:39:00,
2013-02-22 19:44:00,37.0,33.2,29.82,ESE,112,4.6,4.6,86,0.00,OVC,,0.01,WeatherDisplay:10.37,2013-02-23 00:44:00,
2013-02-22 19:49:00,37.0,33.2,29.82,East,90,4.6,4.6,86,0.00,OVC,,0.01,WeatherDisplay:10.37,2013-02-23 00:49:00,
2013-02-22 19:54:00,36.7,33.2,29.82,East,90,3.5,3.5,87,0.00,OVC,,0.01,WeatherDisplay:10.37,2013-02-23 00:54:00,
2013-02-22 19:59:00,36.5,33.3,29.82,East,90,5.8,5.8,88,0.00,OVC,,0.01,WeatherDisplay:10.37,2013-02-23 00:59:00,
2013-02-22 20:04:00,36.3,33.1,29.82,East,90,5.8,5.8,88,0.00,OVC,,0.01,WeatherDisplay:10.37,2013-02-23 01:04:00,
2013-02-22 20:09:00,36.0,33.1,29.82,ESE,112,5.8,5.8,89,0.00,OVC,,0.01,WeatherDisplay:10.37,2013-02-23 01:09:00,
2013-02-22 20:14:00,36.0,33.1,29.82,East,90,3.7,3.7,89,0.00,OVC,,0.01,WeatherDisplay:10.37,2013-02-23 01:14:00,
2013-02-22 20:19:00,36.0,33.1,29.82,ESE,112,4.6,4.6,89,0.00,OVC,,0.01,WeatherDisplay:10.37,2013-02-23 01:19:00,
2013-02-22 20:24:00,35.8,32.9,29.82,ESE,112,4.6,4.6,89,0.00,OVC,,0.01,WeatherDisplay:10.37,2013-02-23 01:24:00,
2013-02-22 20:29:00,35.8,32.9,29.83,ESE,112,4.6,4.6,89,0.00,OVC,,0.01,WeatherDisplay:10.37,2013-02-23 01:29:00,
2013-02-22 20:34:00,35.6,32.7,29.83,ESE,112,3.7,3.7,89,0.00,OVC,,0.01,WeatherDisplay:10.37,2013-02-23 01:34:00,
2013-02-22 20:39:00,35.6,32.7,29.83,ESE,112,5.8,5.8,89,0.00,OVC,,0.01,WeatherDisplay:10.37,2013-02-23 01:39:00,
2013-02-22 20:44:00,35.4,32.5,29.83,East,90,4.7,4.7,89,0.00,OVC,,0.01,WeatherDisplay:10.37,2013-02-23 01:44:00,
2013-02-22 20:49:00,35.2,32.3,29.83,ESE,112,4.7,4.7,89,0.00,OVC,,0.01,WeatherDisplay:10.37,2013-02-23 01:49:00,
2013-02-22 20:54:00,35.2,32.6,29.84,East,90,3.5,3.6,90,0.00,OVC,,0.01,WeatherDisplay:10.37,2013-02-23 01:54:00,
2013-02-22 20:59:00,35.2,32.6,29.84,ESE,112,4.6,4.6,90,0.00,OVC,,0.01,WeatherDisplay:10.37,2013-02-23 01:59:00,
2013-02-22 21:04:00,35.1,32.5,29.83,ESE,112,5.8,5.8,90,0.00,OVC,,0.01,WeatherDisplay:10.37,2013-02-23 02:04:00,
2013-02-22 21:09:00,34.9,32.3,29.83,ESE,112,5.8,5.8,90,0.00,OVC,,0.01,WeatherDisplay:10.37,2013-02-23 02:09:00,
2013-02-22 21:14:00,34.9,32.3,29.84,East,90,3.7,3.7,90,0.00,OVC,,0.01,WeatherDisplay:10.37,2013-02-23 02:14:00,
2013-02-22 21:19:00,34.9,32.3,29.84,NE,45,3.5,3.5,90,0.00,OVC,,0.01,WeatherDisplay:10.37,2013-02-23 02:19:00,
2013-02-22 21:24:00,34.9,32.3,29.84,NW,315,3.2,3.2,90,0.00,OVC,,0.01,WeatherDisplay:10.37,2013-02-23 02:24:00,
2013-02-22 21:29:00,34.9,32.3,29.84,ESE,112,4.7,4.7,90,0.00,OVC,,0.01,WeatherDisplay:10.37,2013-02-23 02:29:00,
2013-02-22 21:34:00,34.7,31.8,29.84,ESE,112,5.8,5.8,89,0.00,OVC,,0.01,WeatherDisplay:10.37,2013-02-23 02:34:00,
2013-02-22 21:39:00,34.5,31.6,29.83,East,90,5.8,5.8,89,0.00,OVC,,0.01,WeatherDisplay:10.37,2013-02-23 02:39:00,
2013-02-22 21:44:00,34.5,31.6,29.83,East,90,5.8,5.8,89,0.00,OVC,,0.01,WeatherDisplay:10.37,2013-02-23 02:44:00,
2013-02-22 21:49:00,34.5,31.6,29.83,East,90,4.6,4.6,89,0.00,OVC,,0.01,WeatherDisplay:10.37,2013-02-23 02:49:00,
2013-02-22 21:54:00,34.5,31.6,29.84,East,90,6.3,6.3,89,0.00,OVC,,0.01,WeatherDisplay:10.37,2013-02-23 02:54:00,
2013-02-22 21:59:00,34.3,31.4,29.84,ENE,68,5.8,5.8,89,0.00,OVC,,0.01,WeatherDisplay:10.37,2013-02-23 02:59:00,
2013-02-22 22:04:00,34.3,31.4,29.84,ESE,112,6.3,6.3,89,0.00,OVC,,0.01,WeatherDisplay:10.37,2013-02-23 03:04:00,
2013-02-22 22:09:00,34.3,31.4,29.84,ESE,112,5.8,5.8,89,0.00,OVC,,0.01,WeatherDisplay:10.37,2013-02-23 03:09:00,
2013-02-22 22:14:00,34.3,31.4,29.83,ESE,112,5.8,5.8,89,0.00,OVC,,0.01,WeatherDisplay:10.37,2013-02-23 03:14:00,
2013-02-22 22:19:00,34.3,31.4,29.83,East,90,5.8,5.8,89,0.00,OVC,,0.01,WeatherDisplay:10.37,2013-02-23 03:19:00,
2013-02-22 22:24:00,34.3,31.4,29.83,ESE,112,6.9,6.9,89,0.00,OVC,,0.01,WeatherDisplay:10.37,2013-02-23 03:24:00,
2013-02-22 22:29:00,34.3,31.4,29.83,ESE,112,6.9,6.9,89,0.00,OVC,,0.01,WeatherDisplay:10.37,2013-02-23 03:29:00,
2013-02-22 22:34:00,34.3,31.4,29.83,ESE,112,6.9,6.9,89,0.00,OVC,,0.01,WeatherDisplay:10.37,2013-02-23 03:34:00,
2013-02-22 22:39:00,34.3,31.4,29.83,ESE,112,5.8,5.8,89,0.00,OVC,,0.01,WeatherDisplay:10.37,2013-02-23 03:39:00,
2013-02-22 22:44:00,34.3,31.4,29.83,ESE,112,6.9,6.9,89,0.00,OVC,,0.01,WeatherDisplay:10.37,2013-02-23 03:44:00,
2013-02-22 22:49:00,34.3,31.4,29.83,ESE,112,6.9,6.9,89,0.00,OVC,,0.01,WeatherDisplay:10.37,2013-02-23 03:49:00,
2013-02-22 22:54:00,34.3,31.4,29.83,ESE,112,6.9,6.9,89,0.00,OVC,,0.01,WeatherDisplay:10.37,2013-02-23 03:54:00,
2013-02-22 22:59:00,34.3,31.1,29.83,ESE,112,7.8,7.8,88,0.00,OVC,,0.01,WeatherDisplay:10.37,2013-02-23 03:59:00,
2013-02-22 23:04:00,34.3,31.1,29.82,ESE,112,6.9,6.9,88,0.00,OVC,,0.01,WeatherDisplay:10.37,2013-02-23 04:04:00,
2013-02-22 23:09:00,34.5,31.0,29.82,East,90,5.8,5.8,87,0.00,OVC,,0.01,WeatherDisplay:10.37,2013-02-23 04:09:00,
2013-02-22 23:14:00,34.5,31.0,29.82,ESE,112,5.8,5.8,87,0.00,OVC,,0.01,WeatherDisplay:10.37,2013-02-23 04:14:00,
2013-02-22 23:19:00,34.5,31.0,29.83,ESE,112,5.8,5.8,87,0.00,OVC,,0.01,WeatherDisplay:10.37,2013-02-23 04:19:00,
2013-02-22 23:24:00,34.5,31.0,29.83,ESE,112,3.5,3.5,87,0.00,OVC,,0.01,WeatherDisplay:10.37,2013-02-23 04:24:00,
2013-02-22 23:29:00,34.5,31.0,29.83,ESE,112,6.9,6.9,87,0.00,OVC,,0.01,WeatherDisplay:10.37,2013-02-23 04:29:00,
2013-02-22 23:34:00,34.5,31.0,29.83,ESE,112,5.8,5.8,87,0.00,OVC,,0.01,WeatherDisplay:10.37,2013-02-23 04:34:00,
2013-02-22 23:39:00,34.5,31.0,29.83,East,90,5.8,5.8,87,0.00,OVC,,0.01,WeatherDisplay:10.37,2013-02-23 04:39:00,
2013-02-22 23:44:00,34.3,30.8,29.83,ESE,112,7.3,7.3,87,0.00,OVC,,0.01,WeatherDisplay:10.37,2013-02-23 04:44:00,
2013-02-22 23:49:00,34.3,30.8,29.83,ESE,112,5.8,5.8,87,0.00,OVC,,0.01,WeatherDisplay:10.37,2013-02-23 04:49:00,
2013-02-22 23:54:00,34.3,30.8,29.83,ESE,112,6.9,6.9,87,0.00,OVC,,0.01,WeatherDisplay:10.37,2013-02-23 04:54:00,
2013-02-22 23:59:00,34.3,30.8,29.83,ESE,112,6.9,6.9,87,0.00,OVC,,0.01,WeatherDisplay:10.37,2013-02-23 04:59:00,